Date,TemperatureHighF,TemperatureAvgF,TemperatureLowF,DewpointHighF,DewpointAvgF,DewpointLowF,HumidityHigh,HumidityAvg,HumidityLow,PressureMaxIn,PressureMinIn,WindSpeedMaxMPH,WindSpeedAvgMPH,GustSpeedMaxMPH,PrecipitationSumIn
2013-6-17,71,67,65,65,64,63,94,88,78,29.88,29.86,0,0,3,0.06
2013-6-18,73,65,60,65,62,58,96,90,68,29.87,29.75,4,0,6,0.02
2013-6-19,79,66,56,64,58,54,97,78,43,30.04,29.86,2,0,5,0.00
2013-6-20,78,66,55,63,59,53,95,77,55,30.14,30.03,3,1,9,0.00
2013-6-21,79,68,57,62,58,51,96,73,41,30.18,30.09,3,0,9,0.00
2013-6-22,66,59,55,58,56,54,97,90,73,30.15,30.08,0,0,1,0.00
2013-6-23,78,66,55,65,59,54,96,79,57,30.14,30.04,3,0,7,0.00
2013-6-24,82,69,61,66,63,60,98,83,52,30.14,30.00,2,0,5,0.07
2013-6-25,80,68,61,69,64,60,98,88,57,30.06,29.93,2,0,7,0.09
2013-6-26,81,68,62,71,64,61,98,89,58,29.99,29.84,2,0,7,0.12
2013-6-27,83,69,62,72,65,60,98,87,57,29.88,29.67,5,0,11,0.31
2013-6-28,83,70,62,66,64,59,95,81,44,29.75,29.55,3,0,12,0.01
2013-6-29,80,67,58,63,60,52,97,80,43,29.64,29.56,2,0,5,0.01
2013-6-30,79,64,54,65,58,53,96,83,47,29.74,29.64,3,0,9,0.04
2013-7-1,76,66,61,67,62,60,98,90,66,29.87,29.72,3,0,9,0.85
2013-7-2,78,68,62,68,63,59,98,85,55,30.03,29.86,3,0,8,0.11
2013-7-3,70,66,60,68,64,59,98,93,79,30.14,30.00,2,0,7,1.92
2013-7-4,70,63,60,69,62,59,99,97,90,30.14,30.08,3,0,7,1.08
2013-7-5,78,68,63,66,63,60,98,86,57,30.14,30.08,4,1,12,0.16
2013-7-6,78,68,63,67,65,62,98,90,62,30.10,30.02,3,0,10,0.52
2013-7-7,76,68,65,69,66,64,98,92,71,30.07,30.00,0,0,3,0.28
2013-7-10,74,72,67,72,69,65,96,90,83,29.92,29.87,2,0,5,1.01
2013-7-11,77,71,65,69,67,65,99,88,70,29.90,29.80,2,0,6,0.01
2013-7-12,79,69,63,67,64,60,98,84,56,29.92,29.80,2,0,12,0.00
2013-7-13,72,66,61,64,62,58,96,85,73,30.03,29.90,3,0,11,0.01
2013-7-14,69,67,65,67,65,62,97,93,87,30.19,30.01,3,0,18,0.37
2013-7-15,79,71,66,67,64,62,91,79,60,30.25,30.18,3,1,11,0.00
2013-7-16,85,72,63,69,65,58,97,80,41,30.26,30.17,2,0,6,0.00
2013-7-17,84,71,64,71,66,61,98,87,48,30.23,30.08,2,0,9,0.09
2013-7-18,84,71,63,71,66,62,98,84,56,30.16,29.99,2,0,9,0.01
2013-7-19,84,72,63,69,65,62,97,80,50,30.06,29.89,2,0,12,0.00
2013-7-20,83,69,65,71,65,64,98,89,61,29.96,29.90,1,0,9,0.44
2013-7-21,81,69,64,70,66,63,97,91,60,29.95,29.86,2,0,10,0.79
2013-7-22,81,70,63,68,65,62,98,84,54,29.92,29.75,4,0,15,0.04
2013-7-23,83,70,62,68,64,59,98,81,51,29.83,29.72,2,0,9,0.00
2013-7-24,83,70,63,68,64,60,96,82,51,29.79,29.71,2,0,10,0.00
2013-7-25,81,69,61,66,61,57,97,79,45,29.96,29.79,1,0,9,0.00
2013-7-26,80,67,58,66,61,56,97,83,54,30.01,29.92,2,0,9,0.01
2013-7-27,77,68,64,67,64,61,98,86,61,29.96,29.81,1,0,6,0.14
2013-7-28,80,69,62,64,61,49,97,78,38,29.95,29.83,3,0,13,0.00
2013-7-29,79,66,57,63,59,55,98,80,53,30.14,29.95,2,0,9,0.00
2013-7-30,80,66,55,66,60,54,97,82,55,30.16,30.07,2,0,9,0.00
2013-7-31,72,66,61,68,64,60,98,93,81,30.11,29.89,3,0,7,0.21
2013-8-1,80,69,63,70,64,61,98,86,57,29.91,29.83,2,0,9,0.25
2013-8-2,80,69,60,67,63,59,98,83,55,29.97,29.88,2,0,7,0.00
2013-8-3,80,69,61,66,63,59,98,82,53,29.97,29.90,1,0,5,0.00
2013-8-4,79,69,62,66,62,56,98,80,47,29.99,29.91,1,0,10,0.00
2013-8-5,83,68,58,65,60,54,96,78,38,30.00,29.89,2,0,13,0.00
2013-8-6,80,70,63,68,64,59,96,82,58,29.94,29.87,2,0,7,0.04
2013-8-7,74,68,65,69,66,64,97,93,80,29.96,29.91,2,0,9,0.46
2013-8-8,78,69,63,70,66,62,99,90,68,29.99,29.92,3,0,10,0.02
2013-8-9,85,72,65,71,66,63,98,85,51,30.00,29.92,1,0,9,0.02
2013-8-10,79,70,65,71,67,64,98,89,68,30.05,29.98,1,0,7,0.13
2013-8-11,79,69,65,70,66,64,98,91,66,30.07,30.00,1,0,6,0.22
2013-8-12,83,70,65,70,67,63,99,92,58,30.04,29.91,4,0,15,0.61
2013-8-13,80,69,64,70,66,63,99,89,61,29.91,29.77,3,0,14,0.09
2013-8-14,66,62,59,64,60,55,98,93,79,29.99,29.82,1,0,4,0.02
2013-8-15,63,60,58,57,55,53,93,86,70,30.06,29.98,2,0,10,0.00
2013-8-16,70,62,54,58,55,52,96,80,60,30.08,30.01,3,0,10,0.00
2013-8-17,67,61,58,60,56,51,96,84,70,30.10,30.04,3,0,10,0.02
2013-8-18,74,65,60,66,62,58,97,91,71,30.14,30.05,2,0,10,0.06
2013-8-19,71,65,62,66,63,61,99,94,78,30.11,30.01,2,0,7,1.01
2013-8-20,77,67,62,68,65,62,98,92,70,30.13,30.04,3,0,9,0.14
2013-8-21,74,67,62,68,64,61,99,92,70,30.15,30.06,1,0,7,0.00
2013-8-22,80,69,59,69,64,59,99,85,57,30.12,29.97,1,0,5,0.01
2013-8-23,81,68,60,67,63,59,99,85,55,30.02,29.92,1,0,5,0.00
2013-8-24,66,61,60,63,60,54,98,95,81,30.22,30.02,2,0,6,0.00
2013-8-25,75,63,52,59,55,51,97,77,49,30.32,30.20,3,0,10,0.00
2013-8-26,79,64,54,61,57,53,99,82,47,30.27,30.09,1,0,4,0.00
2013-8-27,79,66,55,67,60,54,98,85,58,30.12,29.99,1,0,5,0.00
2013-8-28,83,70,61,69,64,60,97,82,54,30.02,29.89,2,0,10,0.00
2013-8-29,84,72,65,70,66,62,92,81,59,29.92,29.85,2,0,12,0.00
2013-8-30,79,72,67,69,66,64,96,84,69,29.94,29.85,4,1,13,0.00
2013-8-31,82,70,62,70,66,61,98,89,60,29.90,29.79,2,0,9,0.39
2013-9-1,82,69,63,69,65,62,98,88,58,29.85,29.74,3,0,16,0.38
2013-9-2,81,70,64,70,66,63,99,89,62,29.86,29.76,2,0,9,0.00
2013-9-3,80,68,60,66,62,56,98,81,46,29.94,29.79,3,0,18,0.32
2013-9-4,82,67,59,66,61,55,99,84,41,30.05,29.94,1,0,7,0.00
2013-9-5,80,67,57,65,60,54,99,82,47,30.10,30.02,1,0,5,0.00
2013-9-6,78,64,53,63,57,52,98,82,53,30.13,30.01,4,0,11,0.00
2013-9-7,79,65,57,65,60,56,99,85,56,30.06,29.93,2,0,6,0.00
2013-9-8,78,66,58,66,61,56,98,85,58,29.97,29.90,1,0,6,0.01
2013-9-9,81,68,60,66,62,59,97,83,56,30.08,29.97,3,0,10,0.00
2013-9-10,82,69,60,66,62,59,99,82,49,30.18,30.07,2,0,9,0.00
2013-9-11,80,68,58,69,62,56,96,85,60,30.18,30.03,1,0,6,0.07
2013-9-12,76,67,62,68,64,60,99,89,67,30.06,29.82,2,0,9,0.21
2013-9-13,74,64,53,61,56,47,98,78,41,29.87,29.77,2,0,10,0.05
2013-9-14,72,57,47,57,51,46,97,81,48,30.06,29.87,3,0,10,0.00
2013-9-15,75,60,48,60,54,47,98,82,51,30.14,30.05,3,0,10,0.00
2013-9-16,76,62,53,62,56,52,99,83,52,30.11,30.04,1,0,5,0.00
2013-9-17,67,61,58,58,54,51,95,79,63,30.19,30.10,4,1,13,0.01
2013-9-18,63,59,56,58,54,50,96,83,74,30.19,30.10,3,0,9,0.00
2013-9-19,74,64,57,65,60,56,98,87,65,30.13,30.01,1,0,6,0.00
2013-9-20,77,65,56,64,60,56,99,85,57,30.03,29.85,2,0,10,0.00
2013-9-21,65,60,58,63,59,57,98,97,88,29.86,29.65,1,0,6,1.05
2013-9-22,73,60,51,57,53,49,98,82,46,29.87,29.71,2,0,7,0.00
2013-9-23,73,58,48,58,52,47,99,83,54,29.99,29.87,2,0,10,0.00
2013-9-24,72,57,49,59,54,48,99,90,59,30.01,29.85,2,0,10,0.00
2013-9-25,60,59,57,60,58,54,98,96,91,29.87,29.77,2,0,8,1.01
2013-9-26,71,60,53,60,56,52,97,87,61,29.99,29.82,1,0,6,0.00
2013-9-27,74,60,51,57,54,50,99,82,46,30.11,29.99,2,0,6,0.01
2013-9-28,69,58,49,56,52,48,97,80,56,30.17,30.07,3,0,10,0.00
2013-9-29,69,59,52,56,51,48,94,78,49,30.10,29.96,2,0,7,0.00
2013-9-30,71,59,51,58,54,49,96,82,54,30.04,29.93,3,0,9,0.00
2013-10-1,73,58,51,59,55,51,98,88,51,30.11,30.00,1,0,7,0.00
2013-10-2,76,61,53,61,56,53,99,85,47,30.13,30.03,1,0,6,0.00
2013-10-3,76,63,54,61,57,53,98,84,53,30.10,30.01,3,0,9,0.00
2013-10-4,78,64,55,61,58,54,99,82,47,30.12,30.02,2,0,6,0.00
2013-10-5,79,65,55,63,59,54,99,83,48,30.10,29.96,2,0,13,0.01
2013-10-6,76,64,52,61,56,51,99,78,49,29.99,29.81,6,1,19,0.03
2013-10-7,64,57,48,61,55,46,98,92,68,29.99,29.72,1,0,7,0.88
2013-10-8,64,54,44,50,46,43,99,79,47,30.15,29.99,4,1,15,0.01
2013-10-9,71,56,44,55,48,41,96,78,52,30.17,30.06,3,0,10,0.00
2013-10-10,70,56,47,55,50,46,99,81,44,30.09,29.99,2,0,7,0.00
2013-10-11,72,57,47,54,49,37,99,78,28,30.03,29.93,1,0,7,0.00
2013-10-12,71,58,48,57,53,47,98,82,57,30.06,29.96,2,0,11,0.00
2013-10-13,70,62,57,60,57,55,98,86,63,30.13,30.05,1,0,4,0.04
2013-10-14,67,60,56,60,56,52,98,88,69,30.15,30.06,2,0,10,0.05
2013-10-15,65,58,53,56,54,51,96,85,70,30.11,29.97,4,1,12,0.00
2013-10-16,67,58,48,56,52,47,96,83,63,30.00,29.89,2,0,9,0.00
2013-10-17,70,61,54,60,57,52,98,89,67,29.91,29.76,4,0,17,0.03
2013-10-18,66,56,49,52,48,44,93,78,55,29.95,29.84,3,0,11,0.00
2013-10-19,64,53,46,49,45,36,96,77,40,29.91,29.81,3,0,13,0.00
2013-10-20,63,48,35,44,38,27,97,74,30,30.05,29.90,3,0,10,0.00
2013-10-21,66,49,35,49,42,34,98,79,33,30.10,29.95,4,0,12,0.01
2013-10-22,66,54,48,48,45,39,91,74,38,29.98,29.76,3,0,14,0.00
2013-10-23,53,45,35,44,34,26,92,68,41,30.00,29.69,6,1,21,0.00
2013-10-24,51,40,28,34,30,26,92,69,47,30.15,30.00,3,0,11,0.00
2013-10-25,47,37,28,33,24,19,85,63,33,30.34,30.15,4,0,11,0.00
2013-10-26,58,40,24,34,25,19,91,62,24,30.33,30.07,3,0,11,0.00
2013-10-27,61,53,44,48,42,34,89,68,51,30.08,30.01,4,0,12,0.00
2013-10-28,58,50,43,52,47,42,98,89,73,30.22,30.06,1,0,6,0.04
2013-10-29,69,55,46,51,46,41,98,76,37,30.30,30.18,2,0,9,0.00
2013-10-30,72,59,49,52,49,45,87,70,46,30.22,30.10,5,1,14,0.00
2013-10-31,66,59,50,55,51,48,96,76,54,30.11,29.73,9,2,24,0.00
2013-11-1,74,63,48,58,44,27,96,56,18,29.69,29.55,7,1,17,0.02
2013-11-2,57,47,38,43,37,32,93,71,46,29.99,29.67,5,0,13,0.00
2013-11-3,56,44,36,36,33,30,86,66,39,30.30,29.99,4,0,11,0.00
2013-11-4,55,44,33,31,29,27,85,57,37,30.44,30.29,4,1,13,0.00
2013-11-5,59,45,33,39,29,19,83,57,22,30.46,30.35,4,1,15,0.00
2013-11-6,65,53,43,50,46,35,96,78,54,30.36,30.05,6,1,15,0.00
2013-11-7,59,48,37,54,40,25,98,75,35,30.13,29.94,3,1,12,0.04
2013-11-8,53,40,29,27,19,8,74,48,16,30.28,30.14,6,1,16,0.00
2013-11-9,53,40,25,31,24,20,84,57,29,30.32,30.20,3,0,7,0.00
2013-11-10,63,48,37,34,27,22,64,46,21,30.25,30.16,5,1,16,0.00
2013-11-11,63,44,26,30,26,22,84,53,23,30.27,30.13,3,0,8,0.00
2013-11-12,49,35,22,36,25,11,83,67,46,30.45,30.07,4,1,15,0.00
2013-11-13,45,28,17,17,12,7,80,56,23,30.58,30.46,5,1,14,0.00
2013-11-14,57,36,18,21,15,8,85,51,16,30.49,30.30,3,0,12,0.00
2013-11-15,46,40,26,45,31,16,98,73,38,30.32,30.16,2,0,7,0.09
2013-11-16,58,50,44,52,48,43,99,94,77,30.20,30.10,4,0,13,0.01
2013-11-17,63,55,48,55,52,47,99,92,70,30.13,29.80,2,0,13,0.27
2013-11-18,62,54,42,58,38,26,99,59,28,29.98,29.77,6,1,20,0.06
2013-11-19,52,42,32,28,22,13,73,47,21,30.17,29.98,4,1,13,0.00
2013-11-20,49,40,34,29,24,20,67,52,35,30.36,30.17,5,2,14,0.00
2013-11-21,51,45,38,47,40,28,98,82,64,30.40,30.30,3,1,16,0.00
2013-11-22,66,55,45,55,50,45,99,86,61,30.32,30.07,5,0,19,0.00
2013-11-23,56,45,30,50,36,17,92,71,53,30.19,30.03,7,2,18,0.00
2013-11-24,30,26,21,18,14,11,65,60,55,30.27,30.18,4,1,14,0.00
2013-11-26,42,42,41,42,41,40,98,98,97,29.68,29.65,3,0,7,0.19
2013-11-27,41,28,19,40,23,11,97,84,68,30.21,29.63,6,2,21,0.01
2013-11-28,46,27,13,27,18,9,90,71,34,30.47,30.20,3,0,9,0.00
2013-11-29,53,34,21,27,23,18,92,66,30,30.57,30.45,3,0,9,0.00
2013-11-30,47,35,26,25,22,19,82,59,40,30.53,30.32,3,1,13,0.00
2013-12-1,56,38,26,37,29,22,91,71,42,30.32,30.01,3,0,10,0.00
2013-12-2,55,42,30,40,34,26,90,76,54,30.01,29.76,2,0,9,0.00
2013-12-3,56,48,41,47,43,37,97,85,61,29.87,29.78,3,0,7,0.01
2013-12-4,66,53,46,51,47,45,99,84,49,29.98,29.86,7,1,16,0.00
2013-12-5,71,59,52,58,54,48,98,87,56,30.00,29.89,4,0,11,0.00
2013-12-6,70,62,50,62,56,48,99,83,56,29.94,29.81,8,2,23,0.01
2013-12-7,50,43,38,49,40,36,97,89,72,30.27,29.91,3,1,13,0.00
2013-12-8,41,37,34,38,35,33,98,94,89,30.26,30.12,5,3,15,0.02
2013-12-9,49,43,34,49,43,33,99,99,98,30.14,29.97,4,1,11,0.00
2013-12-10,44,38,25,44,31,10,99,77,39,30.28,29.86,5,2,20,0.00
2013-12-11,51,32,19,25,17,7,91,60,17,30.44,30.27,4,0,13,0.00
2013-12-12,40,30,22,18,8,-18,77,46,8,30.39,30.31,9,2,19,0.00
2013-12-13,49,32,17,20,15,10,80,52,24,30.38,30.21,3,0,11,0.00
2013-12-14,43,38,35,43,33,20,99,82,49,30.23,29.74,6,1,14,0.00
2013-12-15,44,35,26,43,29,22,99,78,54,30.09,29.71,7,2,20,0.00
2013-12-16,52,36,22,29,23,18,93,65,27,30.20,30.09,6,1,18,0.00
2013-12-17,56,42,28,31,26,20,86,56,31,30.14,29.93,10,3,30,0.00
2013-12-18,49,38,27,15,4,-14,58,29,7,30.28,30.17,6,2,15,0.00
2013-12-19,60,41,26,29,22,14,72,48,22,30.30,30.15,2,0,9,0.00
2013-12-20,63,49,37,46,30,20,79,49,29,30.16,30.05,7,1,16,0.00
2013-12-21,65,58,47,58,51,40,92,80,67,30.06,29.83,10,1,28,0.08
2013-12-22,68,58,53,58,54,51,99,87,57,29.95,29.79,9,2,31,0.81
2013-12-23,53,45,31,53,42,27,99,90,80,30.17,29.92,6,1,12,0.01
2013-12-24,33,28,18,27,19,13,87,70,46,30.40,30.16,6,1,20,0.00
2013-12-25,39,25,14,18,14,11,88,67,36,30.47,30.34,4,1,13,0.00
2013-12-26,48,30,19,25,20,16,89,69,33,30.38,30.27,2,0,10,0.00
2013-12-27,50,33,22,30,24,20,94,71,36,30.46,30.35,2,0,10,0.00
2013-12-28,42,33,22,38,28,19,96,83,54,30.42,30.08,4,0,15,0.00
2013-12-29,52,42,37,45,38,28,98,86,64,30.08,29.79,5,1,15,0.09
2013-12-30,44,37,33,36,33,29,94,85,70,30.12,29.95,5,0,11,0.00
2013-12-31,42,32,25,30,20,6,92,67,22,30.36,30.10,4,0,17,0.00
2014-1-1,45,32,22,27,22,18,85,68,44,30.36,30.10,2,0,10,0.00
2014-1-2,45,33,16,44,28,9,98,82,69,30.10,29.65,5,1,23,0.05